• In Sweden
  • List of Countries
  • For 7 days
  • Water Temperature
  • Satellite Maps
  • Weather Map
  • Weather Widgets
  • user-avatar
    Login

    Hourly Weather Vatican

    Today, 24 September, Sunday

    Time Temperature Precipitation Wind Pressure Humidity
    00:00 +19°C° 0 mm 1 mps 763 mmHg 65%
    01:00 +19°C° 0 mm 1 mps 763 mmHg 69%
    02:00 +19°C° 0 mm 1 mps 762 mmHg 70%
    03:00 +18°C° 0 mm 2 mps 762 mmHg 70%
    04:00 +17°C° 0 mm 2 mps 762 mmHg 71%
    05:00 +18°C° 0 mm 2 mps 762 mmHg 70%
    06:00 +18°C° 0 mm 2 mps 762 mmHg 69%
    07:00 +18°C° 0 mm 2 mps 761 mmHg 65%
    08:00 +20°C° 0 mm 2 mps 762 mmHg 58%
    09:00 +23°C° 0 mm 2 mps 762 mmHg 52%
    10:00 +24°C° 0 mm 1 mps 762 mmHg 46%
    11:00 +25°C° 0 mm 2 mps 762 mmHg 45%
    12:00 +25°C° 0 mm 2 mps 761 mmHg 44%
    13:00 +25°C° 0 mm 2 mps 761 mmHg 42%
    14:00 +25°C° 0 mm 2 mps 761 mmHg 45%
    15:00 +25°C° 0 mm 2 mps 761 mmHg 47%
    16:00 +25°C° 0 mm 2 mps 761 mmHg 50%
    17:00 +24°C° 0 mm 2 mps 761 mmHg 54%
    18:00 +23°C° 0 mm 2 mps 761 mmHg 59%
    19:00 +21°C° 0 mm 1 mps 761 mmHg 63%
    20:00 +20°C° 0 mm 2 mps 761 mmHg 64%
    21:00 +20°C° 0 mm 2 mps 761 mmHg 66%
    22:00 +20°C° 0 mm 2 mps 761 mmHg 67%
    23:00 +19°C° 0.1 mm 2 mps 761 mmHg 69%

    Tomorrow, 25 September, Monday

    Time Temperature Precipitation Wind Pressure Humidity
    00:00 +19°C° 0.1 mm 2 mps 761 mmHg 70%
    01:00 +19°C° 0.1 mm 2 mps 761 mmHg 71%
    02:00 +19°C° 0.1 mm 2 mps 761 mmHg 71%
    03:00 +18°C° 0.1 mm 3 mps 761 mmHg 72%
    04:00 +18°C° 0.1 mm 3 mps 760 mmHg 72%
    05:00 +18°C° 0 mm 3 mps 760 mmHg 71%
    06:00 +18°C° 0 mm 3 mps 760 mmHg 69%
    07:00 +18°C° 0 mm 3 mps 761 mmHg 68%
    08:00 +20°C° 0 mm 3 mps 761 mmHg 62%
    09:00 +22°C° 0 mm 3 mps 761 mmHg 56%
    10:00 +24°C° 0 mm 2 mps 761 mmHg 50%
    11:00 +25°C° 0 mm 3 mps 761 mmHg 48%
    12:00 +26°C° 0 mm 4 mps 761 mmHg 47%
    13:00 +26°C° 0 mm 4 mps 761 mmHg 45%
    14:00 +26°C° 0 mm 4 mps 760 mmHg 47%
    15:00 +26°C° 0 mm 5 mps 760 mmHg 50%
    16:00 +26°C° 0 mm 5 mps 760 mmHg 52%
    17:00 +23°C° 0 mm 5 mps 760 mmHg 56%
    18:00 +22°C° 0 mm 4 mps 761 mmHg 61%
    19:00 +21°C° 0 mm 4 mps 761 mmHg 65%
    20:00 +21°C° 0 mm 4 mps 761 mmHg 67%
    21:00 +21°C° 0 mm 3 mps 761 mmHg 68%
    22:00 +20°C° 0 mm 3 mps 762 mmHg 69%
    23:00 +20°C° 0 mm 3 mps 762 mmHg 69%

    Day after tomorrow, 26 September, Tuesday

    Time Temperature Precipitation Wind Pressure Humidity
    00:00 +20°C° 0 mm 2 mps 761 mmHg 69%
    01:00 +19°C° 0 mm 2 mps 761 mmHg 70%
    02:00 +19°C° 0 mm 2 mps 761 mmHg 70%
    03:00 +19°C° 0 mm 2 mps 761 mmHg 70%
    04:00 +19°C° 0 mm 2 mps 761 mmHg 71%
    05:00 +19°C° 0.1 mm 2 mps 761 mmHg 71%
    06:00 +19°C° 0.1 mm 2 mps 761 mmHg 71%
    07:00 +19°C° 0.1 mm 2 mps 761 mmHg 71%
    08:00 +21°C° 0 mm 2 mps 761 mmHg 65%
    09:00 +23°C° 0 mm 2 mps 762 mmHg 60%
    10:00 +25°C° 0 mm 2 mps 762 mmHg 54%
    11:00 +25°C° 0.1 mm 2 mps 762 mmHg 53%
    12:00 +26°C° 0.1 mm 2 mps 762 mmHg 52%
    13:00 +26°C° 0.1 mm 2 mps 762 mmHg 51%
    14:00 +26°C° 0 mm 2 mps 761 mmHg 53%
    15:00 +25°C° 0 mm 2 mps 761 mmHg 55%
    16:00 +25°C° 0 mm 2 mps 761 mmHg 57%
    17:00 +24°C° 0.1 mm 2 mps 761 mmHg 63%
    18:00 +23°C° 0.1 mm 1 mps 762 mmHg 68%
    19:00 +22°C° 0.1 mm 1 mps 762 mmHg 73%
    20:00 +22°C° 0.4 mm 1 mps 762 mmHg 74%
    21:00 +21°C° 0.4 mm 1 mps 763 mmHg 75%
    22:00 +21°C° 0.4 mm 1 mps 763 mmHg 76%
    23:00 +21°C° 0.2 mm 1 mps 763 mmHg 76%

    27 September, Wednesday

    Time Temperature Precipitation Wind Pressure Humidity
    00:00 +19°C° 0.2 mm 2 mps 763 mmHg 76%
    01:00 +19°C° 0.2 mm 2 mps 763 mmHg 76%
    02:00 +19°C° 0.3 mm 3 mps 763 mmHg 76%
    03:00 +19°C° 0.3 mm 3 mps 763 mmHg 77%
    04:00 +19°C° 0.3 mm 4 mps 763 mmHg 77%
    05:00 +19°C° 0.1 mm 4 mps 763 mmHg 76%
    06:00 +19°C° 0.1 mm 3 mps 763 mmHg 76%
    07:00 +19°C° 0.1 mm 3 mps 763 mmHg 75%
    08:00 +20°C° 0 mm 3 mps 764 mmHg 69%
    09:00 +22°C° 0 mm 3 mps 764 mmHg 63%
    10:00 +24°C° 0 mm 3 mps 764 mmHg 57%
    11:00 +25°C° 0.1 mm 2 mps 764 mmHg 56%
    12:00 +25°C° 0.1 mm 2 mps 764 mmHg 54%
    13:00 +26°C° 0.1 mm 2 mps 764 mmHg 53%
    14:00 +25°C° 0.1 mm 2 mps 764 mmHg 55%
    15:00 +25°C° 0.1 mm 3 mps 764 mmHg 57%
    16:00 +25°C° 0.1 mm 3 mps 764 mmHg 59%
    17:00 +24°C° 0 mm 3 mps 764 mmHg 63%
    18:00 +22°C° 0 mm 3 mps 764 mmHg 68%
    19:00 +21°C° 0 mm 3 mps 764 mmHg 73%
    20:00 +21°C° 0.1 mm 3 mps 765 mmHg 74%
    21:00 +20°C° 0.1 mm 3 mps 765 mmHg 76%
    22:00 +20°C° 0.1 mm 3 mps 765 mmHg 77%
    23:00 +20°C° 0.1 mm 3 mps 765 mmHg 77%

    28 September, Thursday

    Time Temperature Precipitation Wind Pressure Humidity
    00:00 +20°C° 0.1 mm 3 mps 765 mmHg 77%
    01:00 +19°C° 0.1 mm 3 mps 765 mmHg 77%
    02:00 +19°C° 0.1 mm 3 mps 765 mmHg 77%
    03:00 +19°C° 0.1 mm 2 mps 765 mmHg 77%
    04:00 +19°C° 0.1 mm 2 mps 765 mmHg 77%
    05:00 +19°C° 0 mm 2 mps 765 mmHg 75%
    06:00 +19°C° 0 mm 2 mps 765 mmHg 74%
    07:00 +19°C° 0 mm 2 mps 765 mmHg 73%
    08:00 +21°C° 0 mm 2 mps 765 mmHg 67%
    09:00 +23°C° 0 mm 1 mps 765 mmHg 60%
    10:00 +25°C° 0 mm 1 mps 765 mmHg 54%
    11:00 +25°C° 0 mm 2 mps 765 mmHg 52%
    12:00 +26°C° 0 mm 2 mps 764 mmHg 51%
    13:00 +26°C° 0 mm 3 mps 764 mmHg 49%
    14:00 +26°C° 0.1 mm 3 mps 764 mmHg 51%
    15:00 +25°C° 0.1 mm 4 mps 764 mmHg 54%
    16:00 +25°C° 0.1 mm 4 mps 764 mmHg 57%
    17:00 +23°C° 0.2 mm 4 mps 764 mmHg 61%
    18:00 +22°C° 0.2 mm 4 mps 764 mmHg 65%
    19:00 +21°C° 0.2 mm 4 mps 764 mmHg 69%
    20:00 +21°C° 0.1 mm 3 mps 764 mmHg 71%
    21:00 +21°C° 0.1 mm 3 mps 764 mmHg 73%
    22:00 +20°C° 0.1 mm 3 mps 764 mmHg 75%
    23:00 +20°C° 0 mm 3 mps 764 mmHg 74%

    29 September, Friday

    Time Temperature Precipitation Wind Pressure Humidity
    00:00 +19°C° 0 mm 3 mps 764 mmHg 74%
    01:00 +19°C° 0 mm 3 mps 764 mmHg 73%
    02:00 +19°C° 0 mm 3 mps 763 mmHg 73%
    03:00 +19°C° 0 mm 3 mps 763 mmHg 73%
    04:00 +18°C° 0 mm 3 mps 763 mmHg 73%
    05:00 +18°C° 0 mm 3 mps 763 mmHg 72%
    06:00 +18°C° 0 mm 3 mps 763 mmHg 70%
    07:00 +18°C° 0 mm 3 mps 763 mmHg 69%
    08:00 +20°C° 0 mm 3 mps 763 mmHg 63%
    09:00 +23°C° 0 mm 2 mps 763 mmHg 56%
    10:00 +25°C° 0 mm 2 mps 763 mmHg 50%
    11:00 +25°C° 0 mm 2 mps 762 mmHg 48%
    12:00 +26°C° 0 mm 2 mps 762 mmHg 46%
    13:00 +27°C° 0 mm 2 mps 762 mmHg 45%
    14:00 +26°C° 0 mm 2 mps 762 mmHg 48%
    15:00 +26°C° 0 mm 3 mps 761 mmHg 51%
    16:00 +25°C° 0 mm 3 mps 761 mmHg 55%
    17:00 +24°C° 0.2 mm 3 mps 761 mmHg 60%
    18:00 +22°C° 0.2 mm 3 mps 762 mmHg 65%
    19:00 +21°C° 0.2 mm 3 mps 762 mmHg 70%
    20:00 +21°C° 0 mm 3 mps 762 mmHg 70%
    21:00 +20°C° 0 mm 2 mps 762 mmHg 70%
    22:00 +20°C° 0 mm 2 mps 762 mmHg 70%
    23:00 +20°C° 0 mm 2 mps 762 mmHg 70%
    Show more